Location: Carimao
(10.4546°N, 66.7419°W)
Time: 07:05:06
(UTC+00:00)

Cosmos 1626 Rocket - Pass Details

Date: 19 May 2024
Orbit: 599 x 628 km, 82.5° (Epoch: 22 June)

Event Time Altitude Azimuth Distance (km) Brightness Sun altitude
Rises 23:07:10 0° 349° (N) 2,883 7.5 -6.5°
Reaches altitude 10° 23:09:25 10° 345° (NNW) 1,974 6.7 -7.0°
Maximum altitude 23:13:42 56° 267° (W) 731 4.3 -8.0°
Drops below altitude 10° 23:17:56 10° 189° (S) 1,957 6.0 -8.9°
Sets 23:20:10 0° 184° (S) 2,856 6.8 -9.4°
